THORAD AGENA D DEB, 6014

Orbit data source: Space-Track

THORAD AGENA D DEB, 6014 is space debris in SSO originally from a launch on Wed, 08 Apr 1970 UTC launched from the Air Force Western Test Range (AFWTR). Debris objects in space refer to the collection of defunct objects orbiting the Earth. Examples of debris include non-operational satellites, rocket bodies, and fragments generated from explosions, collisions, or faulty payload assembly.

Loading next visibility...
Identifier
6014, 1970-025MR
Orbit
SSO
Country
Flag of USUS
Related business
Manufacturer
Unknown
Mission
Spacecraft
Bus & Motor
Unknown
Mass
Unknown
Launch date (UTC)
1970-04-08 (56 years ago)
Launch vehicle
Unknown
Launch site
Air Force Western Test Range (AFWTR)
Object type
Payload
Rocket body
Debris
Shape & HBR
Unknown shape, 0.1 m
Radar Cross Section
Medium (>0.1 m² and <1 m²)

Expand to show TLE details & history
Last TLE update: 13 hours ago

TLE from 13 hours ago
0 THORAD AGENA D DEB
1 06014U 70025MR  26236.80266869  .00001740  00000-0  10904-2 0  9997
2 06014 100.0302   8.5781 0051189 317.6736  42.0484 14.05517202828686
Epoch: 2026-08-24T19:15Z
TLE epoch observation values (Epoch: 2026-08-24T19:15:50.574Z)
Latitude
0.00002°
Longitude
106.53823°
Altitude
850.113 km
Speed
7.442 km/s
True Right ascension
00h 34m 18s
True Declination
0° 00' 00"
Sunlit
Object was in full shadow at epoch
Visualization orbit readout
Latitude
Unknown
Longitude
Unknown
Altitude
Unknown
Speed
Unknown
Apparent Right ascension
Unknown
Apparent Declination
Unknown
Sunlit
N/A
Visualization observer readout
Local Sidereal Time
23:01:04
Azimuth
Unknown
Elevation
Unknown
Doppler factor
Unknown
Orbital elements
Apogee altitude
909.111 km
Perigee altitude
834.885 km
Semi-major axis
7,250.135 km
Eccentricity
0.00512
Inclination
100.0302°
RAAN
8.5781°
Arg. of periapsis
317.6736°
True anomaly
42.44314°
Mean anomaly
42.0484°
Eccentric anomaly
42.24558°
Mean motion
3.5158 °/min
Orbital period
102.39 mins
BSTAR
0.0010904

Documentation

Showing up to 5 results
|